Location: London
(42.9830°N, 81.2500°W)
Time: 05:47:26
(UTC-05:00)

Amateur Radio Satellites - All Passes

Search period start: 16 January 2017 05:17
Search period end: 17 January 2017 05:17
Location: London, 42.9830°N, 81.2500°W

Satellite Date Start Highest point End Downlink Frequencies (MHz)
Time Altitude Azimuth
ISS 16 Jan 05:18:45 05:21:41 29° 21° (NNE) 05:24:36 145.825
GOMX 1 16 Jan 05:19:32 05:23:11 23° 92° (E) 05:26:40 467.674
Cubesat XI-IV 16 Jan 05:19:42 05:20:40 10° 87° (E) 05:21:37 437.490
STRAND 1 16 Jan 05:33:03 05:36:10 17° 60° (ENE) 05:39:18 437.568
RS-15 16 Jan 05:33:37 05:43:25 26° 1° (N) 05:53:12 29.354- 29.394
ITAMSAT 1 16 Jan 05:44:06 05:45:06 11° 305° (NW) 05:46:06 435.822/435.867
NOAA 15 16 Jan 05:44:26 05:48:21 21° 92° (E) 05:52:15 137.62
CUBESAT XI-V 16 Jan 05:50:10 05:52:56 15° 270° (W) 05:55:43 437.345
HORYU 2 16 Jan 05:55:45 06:00:12 67° 102° (ESE) 06:04:37 437.375
AO-7 16 Jan 06:05:20 06:12:08 29° 306° (NW) 06:18:54 29.400- 29.500
PHONESAT 2.4 16 Jan 06:05:22 06:07:36 41° 175° (S) 06:09:50 2401.200-2431.200
LilacSat-2 16 Jan 06:08:11 06:11:41 32° 97° (E) 06:15:11 437.200
CUTE-I 16 Jan 06:14:51 06:19:46 37° 97° (E) 06:24:41 437.470
GONETS M04 16 Jan 06:17:47 06:24:48 25° 64° (ENE) 06:31:47
NOAA 18 16 Jan 06:20:34 06:24:50 23° 94° (E) 06:29:04 137.9125
AIST 2 16 Jan 06:22:26 06:26:31 46° 242° (WSW) 06:30:33 435.215
DOVE 4 16 Jan 06:23:47 06:27:50 41° 98° (E) 06:31:46 437.250
BRITE-PL 16 Jan 06:27:39 06:32:05 30° 294° (WNW) 06:36:14 437.365/2234.400
O/OREOS (USA 219) 16 Jan 06:31:34 06:34:15 16° 99° (E) 06:36:56 437.305
DANDE 16 Jan 06:38:48 06:40:28 12° 302° (WNW) 06:42:19 436.750
Cosmos 2499 16 Jan 06:39:20 06:45:51 34° 71° (ENE) 06:52:10 435.465 / 435.565
CINEMA 3 16 Jan 06:52:10 06:55:10 19° 93° (E) 06:58:10 145.822/145.860
CANX-2 16 Jan 06:54:01 06:56:12 14° 90° (E) 06:58:23 2200.000
ISS 16 Jan 06:55:08 06:58:17 49° 219° (SW) 07:01:26 145.825
Cubesat XI-IV 16 Jan 06:56:08 07:01:30 85° 107° (ESE) 07:06:51 437.490
GOMX 1 16 Jan 06:57:15 07:01:23 33° 291° (WNW) 07:05:17 467.674
STRAND 1 16 Jan 07:09:43 07:14:47 69° 257° (WSW) 07:19:53 437.568
HO-68 16 Jan 07:09:44 07:15:37 26° 93° (E) 07:21:26 435.675
SEEDS 16 Jan 07:15:42 07:17:49 13° 90° (E) 07:19:54 437.485
NOAA 15 16 Jan 07:23:16 07:28:27 53° 289° (WNW) 07:33:35 137.62
COMPASS 1 16 Jan 07:30:52 07:32:47 13° 90° (E) 07:34:41 437.405
HORYU 2 16 Jan 07:34:01 07:36:12 14° 299° (WNW) 07:38:23 437.375
PHONESAT 2.4 16 Jan 07:39:30 07:41:38 31° 192° (SSW) 07:43:47 2401.200-2431.200
LilacSat-2 16 Jan 07:42:59 07:45:46 19° 293° (WNW) 07:48:32 437.200
AAUSAT CUBESAT 2 16 Jan 07:46:52 07:49:17 15° 91° (E) 07:51:39 437.432
RS-15 16 Jan 07:49:00 08:00:34 42° 35° (NE) 08:11:47 29.354- 29.394
CUTE-I 16 Jan 07:55:06 07:59:42 30° 294° (WNW) 08:04:18 437.470
CUTE 1.7 + AOD 2 16 Jan 07:59:55 08:04:12 62° 101° (E) 08:08:27 437.475
NOAA 18 16 Jan 08:00:29 08:05:45 50° 291° (WNW) 08:10:58 137.9125
DOVE 4 16 Jan 08:02:21 08:05:13 18° 296° (WNW) 08:08:02 437.250
O/OREOS (USA 219) 16 Jan 08:08:49 08:13:12 51° 297° (WNW) 08:17:35 437.305
GONETS M04 16 Jan 08:13:43 08:22:32 76° 266° (W) 08:31:20
CUBEBUG 2 16 Jan 08:19:20 08:23:23 41° 98° (E) 08:27:31 437.445
PRISM 16 Jan 08:25:31 08:29:27 41° 71° (ENE) 08:33:23 437.425
CANX-2 16 Jan 08:28:10 08:32:23 55° 287° (WNW) 08:36:35 2200.000
CINEMA 3 16 Jan 08:28:37 08:32:26 36° 289° (WNW) 08:36:17 145.822/145.860
Cosmos 2499 16 Jan 08:32:23 08:39:05 43° 271° (W) 08:45:36 435.465 / 435.565
Cubesat XI-IV 16 Jan 08:38:03 08:40:51 15° 302° (WNW) 08:43:38 437.490
Oscar 11 16 Jan 08:38:09 08:41:32 22° 93° (E) 08:44:54 145.826/435.025
SO-50 16 Jan 08:46:33 08:50:45 32° 115° (ESE) 08:54:55 436.795
SEEDS 16 Jan 08:49:39 08:53:50 55° 287° (WNW) 08:57:59 437.485
UNISAT 6 16 Jan 08:56:10 08:59:43 26° 68° (ENE) 09:03:16 437.425
HO-68 16 Jan 08:56:41 09:03:46 62° 292° (WNW) 09:10:47 435.675
UWE-3 16 Jan 08:58:00 09:02:18 70° 101° (ESE) 09:06:42 435.000/436.395/437.385
JAS-2 16 Jan 09:02:28 09:05:04 14° 55° (NE) 09:07:47 435.910
COMPASS 1 16 Jan 09:04:32 09:08:41 57° 286° (WNW) 09:12:47 437.405
FUNcube-1 16 Jan 09:07:44 09:11:56 49° 99° (E) 09:16:13 145.935
TIGRISAT 16 Jan 09:10:42 09:14:34 34° 70° (ENE) 09:18:25 435.000
AAUSAT CUBESAT 2 16 Jan 09:20:57 09:25:01 48° 287° (WNW) 09:29:01 437.432
ANTELSAT 16 Jan 09:24:21 09:28:29 51° 72° (ENE) 09:32:38 437.575/2403.000
ZACube-1 16 Jan 09:27:52 09:32:12 89° 106° (ESE) 09:36:38 437.345
CUTE 1.7 + AOD 2 16 Jan 09:37:22 09:39:32 14° 297° (WNW) 09:41:40 437.475
PCSat 16 Jan 09:45:00 09:49:16 23° 44° (NE) 09:53:31 145.827
DELFI C3 16 Jan 09:45:45 09:49:32 38° 98° (E) 09:53:16 145.870
QB50P1 16 Jan 09:50:44 09:51:24 10° 60° (ENE) 09:52:04 145.935-145.965
POLYITAN 1 16 Jan 09:52:45 09:53:57 11° 61° (ENE) 09:55:08 437.675
QB50P2 16 Jan 09:53:18 09:54:58 12° 61° (ENE) 09:56:38 145.880/145.840
CUBEBUG 2 16 Jan 09:56:43 09:59:44 19° 294° (WNW) 10:02:48 437.445
RS-15 16 Jan 10:01:57 10:14:18 78° 241° (WSW) 10:26:08 29.354- 29.394
PRISM 16 Jan 10:02:09 10:04:54 17° 267° (W) 10:07:42 437.425
GONETS M04 16 Jan 10:13:28 10:17:45 15° 286° (WNW) 10:22:02
Oscar 11 16 Jan 10:13:46 10:17:45 35° 290° (WNW) 10:21:43 145.826/435.025
POPSAT HIP 1 16 Jan 10:14:40 10:17:34 18° 65° (ENE) 10:20:27 437.405
HUMSAT D 16 Jan 10:21:41 10:25:54 55° 101° (E) 10:30:05 437.325/437.525
SO-50 16 Jan 10:26:52 10:31:11 34° 313° (NW) 10:35:27 436.795
DUCHIFAT 1 16 Jan 10:31:07 10:34:25 23° 67° (ENE) 10:37:46 145.980
UNISAT 6 16 Jan 10:32:40 10:36:21 28° 264° (W) 10:40:04 437.425
NANOSAT C BR1 16 Jan 10:33:49 10:37:21 27° 68° (ENE) 10:40:54 145.865
UWE-3 16 Jan 10:36:28 10:38:14 12° 298° (WNW) 10:40:01 435.000/436.395/437.385
JAS-2 16 Jan 10:43:59 10:49:13 87° 256° (WSW) 10:54:55 435.910
FUNcube-1 16 Jan 10:45:01 10:47:49 17° 295° (WNW) 10:50:38 145.935
HO-68 16 Jan 10:47:00 10:50:04 13° 312° (NW) 10:53:09 435.675
TIGRISAT 16 Jan 10:48:05 10:51:20 21° 266° (W) 10:54:36 435.000
ANTELSAT 16 Jan 11:03:11 11:05:30 14° 269° (W) 11:07:50 437.575/2403.000
BY70-1 16 Jan 11:11:00 11:14:23 50° 100° (E) 11:17:37 436.1900
DELFI C3 16 Jan 11:21:20 11:24:02 18° 295° (WNW) 11:26:44 145.870
QB50P1 16 Jan 11:22:19 11:26:31 81° 258° (WSW) 11:30:44 145.935-145.965
BUGSAT 1 16 Jan 11:24:52 11:28:30 32° 70° (ENE) 11:32:08 437.445
POLYITAN 1 16 Jan 11:24:56 11:29:08 75° 259° (WSW) 11:33:20 437.675
QB50P2 16 Jan 11:26:01 11:30:12 68° 258° (WSW) 11:34:25 145.880/145.840
CUBEBUG 1 16 Jan 11:27:27 11:30:48 22° 94° (E) 11:34:08 437.445
PCSat 16 Jan 11:27:45 11:33:09 66° 244° (WSW) 11:38:31 145.827
AISAT 16 Jan 11:31:45 11:34:26 16° 92° (E) 11:37:05 437.250
Oscar 19 16 Jan 11:31:57 11:34:48 15° 59° (ENE) 11:37:39 437.125/150
ESTCUBE 1 16 Jan 11:32:20 11:36:40 42° 98° (E) 11:40:57 437.505/2401.250
SPROUT 16 Jan 11:34:48 11:36:06 11° 89° (E) 11:37:25 437.525
POPSAT HIP 1 16 Jan 11:49:04 11:53:02 41° 262° (W) 11:57:02 437.405
50 SAT 16 Jan 11:58:16 12:00:54 19° 94° (E) 12:03:29 437.505
HUMSAT D 16 Jan 11:58:38 12:01:03 15° 297° (WNW) 12:03:28 437.325/437.525
VELOX 1 16 Jan 12:04:25 12:08:24 33° 97° (E) 12:12:22 145.980
DUCHIFAT 1 16 Jan 12:06:15 12:09:57 30° 263° (W) 12:13:41 145.980
NANOSAT C BR1 16 Jan 12:09:29 12:13:01 26° 265° (W) 12:16:34 145.865
RS-15 16 Jan 12:16:58 12:24:35 20° 263° (W) 12:32:05 29.354- 29.394
Cosmos 2491 16 Jan 12:28:16 12:35:09 25° 64° (ENE) 12:42:00 435.465 / 435.565
BY70-1 16 Jan 12:43:21 12:44:18 11° 297° (WNW) 12:45:16 436.1900
Gurwin Techsat 1B 16 Jan 12:45:20 12:50:08 36° 67° (ENE) 12:54:56 435.225
DX 1 16 Jan 12:52:02 12:56:18 51° 100° (E) 13:00:30 434.975-435.025
UKube-1 16 Jan 13:00:37 13:04:48 46° 100° (E) 13:08:56 .
BUGSAT 1 16 Jan 13:00:49 13:03:56 21° 266° (W) 13:07:02 437.445
CUBEBUG 1 16 Jan 13:03:13 13:07:10 35° 290° (WNW) 13:11:05 437.445
AISAT 16 Jan 13:06:55 13:11:10 49° 288° (WNW) 13:15:23 437.250
Oscar 19 16 Jan 13:08:14 13:13:26 80° 256° (WSW) 13:18:41 437.125/150
SPROUT 16 Jan 13:08:14 13:12:27 65° 286° (WNW) 13:16:40 437.525
ESTCUBE 1 16 Jan 13:09:48 13:13:11 21° 295° (WNW) 13:16:32 437.505/2401.250
TISAT 1 16 Jan 13:17:46 13:21:03 22° 94° (E) 13:24:18 437.305
AO-7 16 Jan 13:21:15 13:27:46 26° 52° (NE) 13:34:18 29.400- 29.500
50 SAT 16 Jan 13:31:04 13:34:07 26° 291° (WNW) 13:37:08 437.505
VELOX 1 16 Jan 13:41:09 13:44:42 24° 294° (WNW) 13:48:14 145.980
AIST 1 16 Jan 13:41:11 13:43:43 15° 85° (E) 13:46:15
CUSAT 1 16 Jan 13:41:55 13:48:35 29° 66° (ENE) 13:55:12 437.405
ITAMSAT 1 16 Jan 13:42:06 13:46:17 26° 64° (ENE) 13:50:29 435.822/435.867
DANDE 16 Jan 13:47:23 13:50:10 12° 59° (ENE) 13:53:04 436.750
ITUPSAT 1 16 Jan 14:19:40 14:23:20 21° 93° (E) 14:26:58 437.325
Cosmos 2491 16 Jan 14:24:10 14:32:56 77° 265° (W) 14:41:42 435.465 / 435.565
Gurwin Techsat 1B 16 Jan 14:25:26 14:30:05 31° 264° (W) 14:34:46 435.225
DX 1 16 Jan 14:29:22 14:32:04 16° 297° (WNW) 14:34:45 434.975-435.025
AO-85 16 Jan 14:30:07 14:34:00 25° 114° (ESE) 14:37:40 145.980
YUBILEINY 16 Jan 14:32:50 14:41:17 55° 90° (E) 14:49:48 435.215
UKube-1 16 Jan 14:37:37 14:40:28 18° 297° (WNW) 14:43:19 .
Cosmos 2504 16 Jan 14:50:19 14:58:11 39° 87° (E) 15:05:41 435.465 / 435.565
TISAT 1 16 Jan 14:53:01 14:56:43 32° 291° (WNW) 15:00:25 437.305
BEESAT 16 Jan 14:56:44 15:01:24 50° 100° (E) 15:06:02 436.000
SWISSCUBE 16 Jan 14:57:50 15:02:34 58° 101° (E) 15:07:17 437.505
AO-7 16 Jan 15:11:18 15:19:40 81° 253° (WSW) 15:28:06 29.400- 29.500
AIST 1 16 Jan 15:16:39 15:20:53 47° 282° (WNW) 15:25:07
ITAMSAT 1 16 Jan 15:20:38 15:25:31 42° 261° (W) 15:30:26 435.822/435.867
CUSAT 1 16 Jan 15:23:14 15:31:06 69° 265° (W) 15:38:44 437.405
DANDE 16 Jan 15:26:55 15:34:08 57° 76° (ENE) 15:42:18 436.750
MOZHAYETS 4 16 Jan 15:32:55 15:37:13 37° 97° (E) 15:41:30
ITUPSAT 1 16 Jan 15:56:47 16:01:20 43° 290° (WNW) 16:05:52 437.325
BRITE-PL 16 Jan 15:59:17 16:04:38 44° 70° (ENE) 16:09:59 437.365/2234.400
M-CUBED/EXP-1 PRIME 16 Jan 16:06:12 16:09:07 25° 101° (ESE) 16:11:55 437.505
CUBESAT XI-V 16 Jan 16:07:52 16:10:12 14° 89° (E) 16:12:31 437.345
AO-85 16 Jan 16:09:52 16:14:16 40° 309° (NW) 16:18:23 145.980
STARS 16 Jan 16:16:29 16:18:59 15° 92° (E) 16:21:27 437.465
Cosmos 2491 16 Jan 16:23:50 16:28:12 15° 286° (WNW) 16:32:34 435.465 / 435.565
GOMX 1 16 Jan 16:27:10 16:32:01 34° 69° (ENE) 16:36:43 467.674
YUBILEINY 16 Jan 16:30:32 16:38:25 35° 291° (WNW) 16:46:22 435.215
BEESAT 16 Jan 16:35:24 16:38:48 20° 297° (WNW) 16:42:12 436.000
SWISSCUBE 16 Jan 16:36:46 16:39:54 18° 298° (WNW) 16:43:01 437.505
O/OREOS (USA 219) 16 Jan 16:38:40 16:42:50 36° 60° (ENE) 16:47:00 437.305
Cubesat XI-IV 16 Jan 16:40:53 16:44:50 22° 62° (ENE) 16:48:46 437.490
Cosmos 2504 16 Jan 16:43:00 16:51:23 49° 285° (WNW) 16:59:22 435.465 / 435.565
KKS-1 16 Jan 16:45:29 16:49:54 67° 103° (ESE) 16:54:17 437.445
AUBIESAT-1 16 Jan 16:46:27 16:49:53 71° 107° (ESE) 16:53:11 437.475
BEESAT 3 16 Jan 16:50:11 16:52:48 17° 111° (ESE) 16:55:27 437.485
LilacSat-2 16 Jan 16:51:36 16:54:17 19° 67° (ENE) 16:56:59 437.200
HORYU 2 16 Jan 16:54:20 16:58:42 69° 74° (ENE) 17:03:05 437.375
NOAA 15 16 Jan 17:05:01 17:09:49 36° 67° (ENE) 17:14:38 137.62
CUSAT 1 16 Jan 17:08:01 17:11:38 14° 283° (WNW) 17:15:15 437.405
AO-7 16 Jan 17:08:53 17:13:39 16° 272° (W) 17:18:27 29.400- 29.500
DANDE 16 Jan 17:10:08 17:16:37 34° 271° (W) 17:23:46 436.750
MOZHAYETS 4 16 Jan 17:10:28 17:14:10 24° 294° (WNW) 17:17:53
SO-50 16 Jan 17:16:42 17:20:56 38° 48° (NE) 17:25:06 436.795
BEESAT 2 16 Jan 17:24:59 17:27:42 18° 112° (ESE) 17:30:27 435.950
DOVE 4 16 Jan 17:29:03 17:33:58 51° 73° (ENE) 17:38:40 437.250
CUTE-I 16 Jan 17:37:27 17:42:42 66° 72° (ENE) 17:47:59 437.470
BRITE-PL 16 Jan 17:38:21 17:43:11 29° 267° (W) 17:48:03 437.365/2234.400
HO-68 16 Jan 17:40:12 17:45:37 24° 56° (NE) 17:51:02 435.675
M-CUBED/EXP-1 PRIME 16 Jan 17:40:59 17:43:28 19° 299° (WNW) 17:45:53 437.505
CUBESAT XI-V 16 Jan 17:43:21 17:48:02 65° 286° (WNW) 17:52:39 437.345
NOAA 18 16 Jan 17:47:22 17:52:37 48° 69° (ENE) 17:57:54 137.9125
CANX-2 16 Jan 17:48:41 17:50:13 12° 61° (ENE) 17:51:45 2200.000
STARS 16 Jan 17:51:23 17:55:38 52° 288° (WNW) 17:59:52 437.465
CINEMA 3 16 Jan 17:54:40 17:58:03 21° 67° (ENE) 18:01:21 145.822/145.860
GOMX 1 16 Jan 18:05:04 18:10:00 34° 264° (W) 18:14:49 467.674
SEEDS 16 Jan 18:09:25 18:10:44 11° 61° (ENE) 18:12:03 437.485
O/OREOS (USA 219) 16 Jan 18:18:30 18:22:01 23° 258° (WSW) 18:25:33 437.305
Cubesat XI-IV 16 Jan 18:19:18 18:24:30 55° 259° (W) 18:29:44 437.490
KKS-1 16 Jan 18:23:46 18:25:54 13° 299° (WNW) 18:28:03 437.445
COMPASS 1 16 Jan 18:23:51 18:24:44 11° 61° (ENE) 18:25:37 437.405
LilacSat-2 16 Jan 18:25:00 18:28:21 31° 263° (W) 18:31:46 437.200
BEESAT 3 16 Jan 18:26:22 18:30:05 43° 309° (NW) 18:33:53 437.485
HORYU 2 16 Jan 18:34:16 18:35:42 11° 270° (W) 18:37:09 437.375
AAUSAT CUBESAT 2 16 Jan 18:38:56 18:40:33 12° 62° (ENE) 18:42:09 437.432
NOAA 15 16 Jan 18:44:59 18:49:36 30° 264° (W) 18:54:16 137.62
CUTE 1.7 + AOD 2 16 Jan 18:53:08 18:57:11 47° 72° (ENE) 19:01:18 437.475
SO-50 16 Jan 18:57:29 19:01:14 26° 246° (WSW) 19:04:56 436.795
BEESAT 2 16 Jan 19:01:24 19:05:10 42° 309° (NW) 19:09:01 435.950
DOVE 4 16 Jan 19:08:15 19:11:52 19° 268° (W) 19:15:23 437.250
Cosmos 2499 16 Jan 19:16:47 19:23:50 30° 85° (E) 19:30:32 435.465 / 435.565
CUBEBUG 2 16 Jan 19:18:24 19:22:15 36° 71° (ENE) 19:26:05 437.445
STRAND 1 16 Jan 19:19:21 19:24:08 38° 98° (E) 19:28:53 437.568
CUTE-I 16 Jan 19:19:58 19:23:13 16° 269° (W) 19:26:29 437.470
GONETS M04 16 Jan 19:21:12 19:28:01 27° 81° (E) 19:34:52
CANX-2 16 Jan 19:21:15 19:25:28 72° 259° (W) 19:29:45 2200.000
HO-68 16 Jan 19:25:25 19:32:37 76° 255° (WSW) 19:39:52 435.675
NOAA 18 16 Jan 19:29:06 19:33:30 24° 266° (W) 19:37:55 137.9125
CINEMA 3 16 Jan 19:30:46 19:34:59 37° 262° (W) 19:39:04 145.822/145.860
Oscar 11 16 Jan 19:34:06 19:37:11 19° 65° (ENE) 19:40:16 145.826/435.025
SEEDS 16 Jan 19:41:36 19:45:48 74° 259° (W) 19:50:03 437.485
COMPASS 1 16 Jan 19:55:27 19:59:38 79° 258° (WSW) 20:03:52 437.405
UWE-3 16 Jan 19:55:47 19:59:52 60° 74° (ENE) 20:03:58 435.000/436.395/437.385
FUNcube-1 16 Jan 20:04:08 20:08:00 40° 71° (ENE) 20:11:53 145.935
AAUSAT CUBESAT 2 16 Jan 20:11:18 20:15:26 68° 258° (WSW) 20:19:38 437.432
AIST 2 16 Jan 20:20:45 20:24:16 28° 114° (ESE) 20:27:51 435.215
ZACube-1 16 Jan 20:24:22 20:28:29 75° 74° (ENE) 20:32:38 437.345
CUTE 1.7 + AOD 2 16 Jan 20:30:44 20:33:17 16° 269° (W) 20:35:51 437.475
DELFI C3 16 Jan 20:32:16 20:35:36 26° 68° (ENE) 20:38:57 145.870
CUBEBUG 2 16 Jan 20:56:01 20:59:00 19° 267° (W) 21:01:59 437.445
STRAND 1 16 Jan 20:58:49 21:03:08 28° 295° (WNW) 21:07:29 437.568
Cosmos 2499 16 Jan 21:08:07 21:16:31 59° 282° (WNW) 21:24:24 435.465 / 435.565
Oscar 11 16 Jan 21:08:58 21:13:01 41° 262° (W) 21:17:08 145.826/435.025
HUMSAT D 16 Jan 21:13:38 21:17:27 40° 71° (ENE) 21:21:20 437.325/437.525
GONETS M04 16 Jan 21:15:24 21:24:03 68° 281° (W) 21:32:48
HO-68 16 Jan 21:18:24 21:21:27 13° 274° (W) 21:24:32 435.675
BY70-1 16 Jan 21:29:11 21:30:04 11° 63° (ENE) 21:30:58 436.1900
UWE-3 16 Jan 21:35:20 21:36:44 11° 270° (W) 21:38:08 435.000/436.395/437.385
PRISM 16 Jan 21:40:53 21:44:58 59° 101° (E) 21:49:01 437.425
FUNcube-1 16 Jan 21:41:43 21:44:25 17° 268° (W) 21:47:10 145.935
JAS-2 16 Jan 21:52:23 21:56:10 15° 88° (E) 22:00:04 435.910
AIST 2 16 Jan 21:58:57 22:02:40 31° 313° (NW) 22:06:26 435.215
DELFI C3 16 Jan 22:06:58 22:10:20 25° 265° (W) 22:13:43 145.870
RS-15 16 Jan 22:20:40 22:26:22 15° 94° (E) 22:32:09 29.354- 29.394
UNISAT 6 16 Jan 22:22:15 22:26:33 51° 100° (E) 22:30:54 437.425
CUBEBUG 1 16 Jan 22:24:17 22:27:39 22° 66° (ENE) 22:30:59 437.445
SPROUT 16 Jan 22:29:55 22:31:00 11° 60° (ENE) 22:32:04 437.525
AISAT 16 Jan 22:30:01 22:32:55 17° 63° (ENE) 22:35:48 437.250
ESTCUBE 1 16 Jan 22:32:27 22:36:43 43° 71° (ENE) 22:41:02 437.505/2401.250
50 SAT 16 Jan 22:36:16 22:36:34 10° 62° (ENE) 22:36:53 437.505
TIGRISAT 16 Jan 22:36:54 22:41:16 69° 102° (ESE) 22:45:43 435.000
HUMSAT D 16 Jan 22:50:36 22:53:16 17° 268° (W) 22:55:57 437.325/437.525
ANTELSAT 16 Jan 22:51:02 22:55:26 79° 286° (WNW) 22:59:55 437.575/2403.000
BY70-1 16 Jan 22:57:24 23:00:03 35° 262° (W) 23:02:58 436.1900
AO-85 16 Jan 23:00:17 23:03:37 25° 46° (NE) 23:06:52 145.980
VELOX 1 16 Jan 23:02:20 23:06:19 33° 69° (ENE) 23:10:20 145.980
QB50P1 16 Jan 23:07:17 23:09:45 15° 92° (E) 23:12:12 145.935-145.965
Cosmos 2499 16 Jan 23:08:55 23:11:25 11° 304° (NW) 23:13:53 435.465 / 435.565
POLYITAN 1 16 Jan 23:09:53 23:12:34 16° 92° (E) 23:15:14 437.675
QB50P2 16 Jan 23:10:48 23:13:41 18° 93° (E) 23:16:35 145.880/145.840
PRISM 16 Jan 23:17:48 23:19:46 13° 298° (WNW) 23:21:44 437.425
GONETS M04 16 Jan 23:18:28 23:22:48 14° 305° (NW) 23:27:10
POPSAT HIP 1 16 Jan 23:32:50 23:36:28 28° 96° (E) 23:40:06 437.405
JAS-2 16 Jan 23:34:57 23:41:56 79° 103° (ESE) 23:49:37 435.910
ISS 16 Jan 23:35:40 23:38:32 29° 137° (SE) 23:41:24 145.825
DX 1 16 Jan 23:48:05 23:52:18 50° 72° (ENE) 23:56:33 434.975-435.025
DUCHIFAT 1 16 Jan 23:48:48 23:52:41 36° 98° (E) 23:56:33 145.980
NANOSAT C BR1 16 Jan 23:52:00 23:56:02 43° 99° (E) 00:00:01 145.865
UKube-1 16 Jan 23:55:41 23:59:47 44° 71° (ENE) 00:03:55 .
CUBEBUG 1 16 Jan 23:59:33 00:03:41 38° 262° (W) 00:07:49 437.445
UNISAT 6 17 Jan 00:00:06 00:02:52 17° 296° (WNW) 00:05:40 437.425
SPROUT 17 Jan 00:02:01 00:06:17 79° 258° (WSW) 00:10:34 437.525
AISAT 17 Jan 00:04:38 00:08:58 51° 260° (W) 00:13:19 437.250
50 SAT 17 Jan 00:05:45 00:09:17 59° 260° (W) 00:12:50 437.505
ESTCUBE 1 17 Jan 00:10:27 00:13:42 19° 267° (W) 00:17:00 437.505/2401.250
TISAT 1 17 Jan 00:10:29 00:13:30 20° 65° (ENE) 00:16:31 437.305
TIGRISAT 17 Jan 00:15:28 00:17:26 13° 298° (WNW) 00:19:24 435.000
RS-15 17 Jan 00:24:36 00:36:14 67° 115° (ESE) 00:48:22 29.354- 29.394
PCSat 17 Jan 00:30:07 00:32:39 13° 103° (ESE) 00:35:11 145.827
VELOX 1 17 Jan 00:39:12 00:42:49 24° 265° (W) 00:46:27 145.980
BUGSAT 1 17 Jan 00:40:20 00:44:14 47° 100° (E) 00:48:08 437.445
AO-85 17 Jan 00:40:32 00:44:01 31° 244° (WSW) 00:47:27 145.980
QB50P1 17 Jan 00:41:43 00:45:46 48° 288° (WNW) 00:49:49 145.935-145.965
YUBILEINY 17 Jan 00:42:09 00:49:31 28° 66° (ENE) 00:56:47 435.215
Cosmos 2504 17 Jan 00:44:23 00:47:04 12° 55° (NE) 00:49:42 435.465 / 435.565
POLYITAN 1 17 Jan 00:44:33 00:48:34 44° 288° (WNW) 00:52:36 437.675
QB50P2 17 Jan 00:45:41 00:49:39 40° 289° (WNW) 00:53:37 145.880/145.840
Gurwin Techsat 1B 17 Jan 01:02:20 01:04:30 12° 88° (E) 01:06:40 435.225
BEESAT 3 17 Jan 01:05:24 01:08:11 18° 42° (NE) 01:10:59 437.485
POPSAT HIP 1 17 Jan 01:08:39 01:12:09 26° 292° (WNW) 01:15:40 437.405
ISS 17 Jan 01:11:50 01:14:56 40° 334° (NNW) 01:18:02 145.825
Oscar 19 17 Jan 01:19:11 01:23:52 33° 96° (E) 01:28:30 437.125/150
JAS-2 17 Jan 01:21:14 01:26:22 23° 300° (WNW) 01:31:51 435.910
AIST 1 17 Jan 01:22:35 01:26:41 42° 77° (ENE) 01:30:44
DUCHIFAT 1 17 Jan 01:25:01 01:28:07 21° 294° (WNW) 01:31:14 145.980
DX 1 17 Jan 01:26:07 01:28:46 16° 268° (W) 01:31:25 434.975-435.025
ITUPSAT 1 17 Jan 01:27:10 01:31:11 28° 66° (ENE) 01:35:14 437.325
NANOSAT C BR1 17 Jan 01:28:36 01:31:25 18° 295° (WNW) 01:34:15 145.865
Cosmos 2491 17 Jan 01:31:51 01:38:37 26° 81° (E) 01:45:22 435.465 / 435.565
UKube-1 17 Jan 01:33:08 01:36:01 17° 267° (W) 01:38:55 .
BEESAT 2 17 Jan 01:41:05 01:44:00 19° 42° (NE) 01:46:54 435.950
TISAT 1 17 Jan 01:44:59 01:48:53 38° 262° (W) 01:52:48 437.305
AUBIESAT-1 17 Jan 02:00:40 02:02:20 12° 57° (ENE) 02:03:58 437.475
BEESAT 17 Jan 02:03:46 02:08:27 64° 73° (ENE) 02:13:10 436.000
SWISSCUBE 17 Jan 02:04:55 02:09:39 74° 74° (ENE) 02:14:25 437.505
PCSat 17 Jan 02:09:50 02:15:15 85° 300° (WNW) 02:20:43 145.827
BUGSAT 1 17 Jan 02:16:55 02:19:13 15° 296° (WNW) 02:21:31 437.445
Cosmos 2504 17 Jan 02:34:41 02:42:12 68° 79° (E) 02:49:20 435.465 / 435.565
MOZHAYETS 4 17 Jan 02:35:30 02:39:43 38° 70° (ENE) 02:43:59
RS-15 17 Jan 02:38:03 02:49:28 46° 321° (NW) 03:01:17 29.354- 29.394
YUBILEINY 17 Jan 02:38:19 02:47:03 68° 268° (W) 02:55:43 435.215
Gurwin Techsat 1B 17 Jan 02:39:45 02:45:06 84° 286° (WNW) 02:50:25 435.225
BEESAT 3 17 Jan 02:42:12 02:46:08 56° 241° (WSW) 02:50:02 437.485
CUSAT 1 17 Jan 02:46:36 02:49:33 16° 78° (ENE) 02:52:56 437.405
ISS 17 Jan 02:49:42 02:52:03 18° 354° (N) 02:54:24 145.825
M-CUBED/EXP-1 PRIME 17 Jan 02:51:45 02:56:04 49° 68° (ENE) 03:00:07 437.505
Oscar 19 17 Jan 02:58:34 03:03:07 32° 294° (WNW) 03:07:38 437.125/150
AIST 1 17 Jan 03:01:16 03:03:53 16° 274° (W) 03:06:29
ITUPSAT 1 17 Jan 03:04:37 03:08:54 33° 263° (W) 03:13:13 437.325
CUBESAT XI-V 17 Jan 03:12:02 03:14:52 16° 62° (ENE) 03:17:42 437.345
AO-7 17 Jan 03:12:25 03:19:46 33° 96° (E) 03:27:01 29.400- 29.500
STARS 17 Jan 03:14:09 03:16:50 16° 63° (ENE) 03:19:32 437.465
BEESAT 2 17 Jan 03:18:08 03:22:05 54° 241° (WSW) 03:26:01 435.950
Cosmos 2491 17 Jan 03:25:59 03:34:38 69° 281° (W) 03:43:22 435.465 / 435.565
AUBIESAT-1 17 Jan 03:31:52 03:36:15 77° 252° (WSW) 03:40:24 437.475
ITAMSAT 1 17 Jan 03:32:03 03:37:13 62° 102° (ESE) 03:42:23 435.822/435.867
KKS-1 17 Jan 03:44:00 03:48:26 69° 74° (ENE) 03:52:52 437.445
BEESAT 17 Jan 03:44:11 03:46:39 14° 270° (W) 03:49:10 436.000
SWISSCUBE 17 Jan 03:46:05 03:47:57 12° 271° (W) 03:49:50 437.505
PCSat 17 Jan 03:55:57 03:59:29 17° 321° (NW) 04:03:01 145.827
BRITE-PL 17 Jan 04:06:13 04:07:52 12° 85° (E) 04:09:29 437.365/2234.400
MOZHAYETS 4 17 Jan 04:13:28 04:17:00 22° 267° (W) 04:20:33
Gurwin Techsat 1B 17 Jan 04:22:01 04:24:13 13° 303° (WNW) 04:26:25 435.225
CUSAT 1 17 Jan 04:25:40 04:30:21 65° 284° (WNW) 04:36:34 437.405
ISS 17 Jan 04:26:41 04:29:20 23° 15° (NNE) 04:32:00 145.825
M-CUBED/EXP-1 PRIME 17 Jan 04:27:42 04:30:40 17° 261° (W) 04:33:32 437.505
PHONESAT 2.4 17 Jan 04:27:42 04:29:39 24° 164° (SSE) 04:31:38 2401.200-2431.200
Cosmos 2504 17 Jan 04:29:24 04:34:44 22° 280° (W) 04:39:56 435.465 / 435.565
DANDE 17 Jan 04:38:07 04:41:24 39° 91° (E) 04:45:41 436.750
YUBILEINY 17 Jan 04:38:48 04:42:02 12° 288° (WNW) 04:45:14 435.215
AIST 2 17 Jan 04:40:43 04:44:25 28° 46° (NE) 04:48:06 435.215
HORYU 2 17 Jan 04:46:15 04:47:58 12° 90° (E) 04:49:41 437.375
CUBESAT XI-V 17 Jan 04:47:06 04:51:44 61° 259° (W) 04:56:26 437.345
STARS 17 Jan 04:48:29 04:52:46 53° 260° (W) 04:57:04 437.465
